This demonstration page uses our WeatherBlox Daily Observations layout. Learn more.

Left ArrowRight Arrow

34.74481, -87.66753

Hourly Observations for October 16, 2021

Temp ( °F °C ) Dew Point ( °F °C ) Humidity (%) Winds ( mph kmh ) Pressure ( in mb ) Visibility ( mi km ) Precip ( " mm )
12:33 am 00:33 Cloudy 71 21.7 66 18.9 84 84 WNW 9 15 29.89 1012 10 16 0.01 0.25
12:48 am 00:48 Cloudy 72 22 66 19 83 83 WNW 9 15 29.90 1013 10 16 0.01 0.25
12:53 am 00:53 Cloudy 71 21.7 66 18.9 84 84 WNW 10 17 29.90 1013 10 16 0.01 0.25
1:05 am 01:05 Cloudy 71 21.7 66 18.9 84 84 WNW 9 15 29.91 1013 10 16 N/A
1:14 am 01:14 Cloudy 71 21.7 66 18.9 84 84 WNW 9 15 29.91 1013 10 16 N/A
1:53 am 01:53 Cloudy 65 18.3 59 15 81 81 NW 15 24 29.95 1014 10 16 N/A
2:16 am 02:16 Cloudy 64 17.8 58 14.4 81 81 NNW 12 19 29.97 1015 10 16 N/A
2:42 am 02:42 Cloudy 63 17.2 56 13.3 78 78 NW 14 22 29.98 1015 10 16 N/A
2:53 am 02:53 Cloudy 63 17.2 56 13.3 78 78 NNW 14 22 29.98 1015 10 16 N/A
3:53 am 03:53 Cloudy 60 15.6 53 11.7 78 78 N 18 30 30.01 1016 10 16 N/A
4:53 am 04:53 Cloudy 59 15 51 10.6 75 75 NNW 7 11 30.05 1018 10 16 N/A
5:53 am 05:53 Mostly Cloudy 58 14.4 48 8.9 70 70 NNW 10 17 30.09 1019 10 16 N/A
6:06 am 06:06 Partly Cloudy 57 13.9 47 8.3 69 69 NNW 14 22 30.10 1019 10 16 N/A
6:53 am 06:53 Clear 56 13.3 47 8.3 72 72 NW 7 11 30.11 1020 10 16 N/A
7:53 am 07:53 Sunny 56 13.3 47 8.3 72 72 VRB 7 11 30.14 1021 10 16 N/A
8:53 am 08:53 Sunny 58 14.4 46 7.8 65 65 N 7 11 30.16 1021 10 16 N/A
9:53 am 09:53 Sunny 61 16.1 42 5.6 50 50 N 12 19 30.17 1022 10 16 N/A
10:53 am 10:53 Sunny 64 17.8 41 5 43 43 N 12 19 30.18 1022 10 16 N/A
11:53 am 11:53 Sunny 66 18.9 39 3.9 37 37 N 10 17 30.17 1022 10 16 N/A
12:53 pm 12:53 Sunny 67 19.4 40 4.4 37 37 N 10 17 30.16 1021 10 16 N/A
1:53 pm 13:53 Sunny 68 20 38 3.3 33 33 NNW 12 19 30.13 1020 10 16 N/A
2:53 pm 14:53 Sunny 69 20.6 39 3.9 33 33 NW 15 24 30.14 1021 10 16 N/A
3:53 pm 15:53 Sunny 68 20 38 3.3 33 33 NW 9 15 30.14 1021 10 16 N/A
4:53 pm 16:53 Sunny 68 20 38 3.3 33 33 NNW 8 13 30.15 1021 10 16 N/A
5:53 pm 17:53 Sunny 65 18.3 40 4.4 40 40 NW 5 7 30.15 1021 10 16 N/A
6:53 pm 18:53 Clear 61 16.1 41 5 48 48 NNW 3 6 30.16 1021 10 16 N/A
7:53 pm 19:53 Clear 56 13.3 45 7.2 67 67 NW 5 7 30.18 1022 10 16 N/A
8:53 pm 20:53 Clear 55 12.8 45 7.2 69 69 NW 3 6 30.19 1022 10 16 N/A
9:53 pm 21:53 Clear 55 12.8 44 6.7 67 67 NW 5 7 30.20 1023 10 16 N/A
10:53 pm 22:53 Clear 55 12.8 43 6.1 64 64 N N/A 30.20 1023 10 16 N/A
11:53 pm 23:53 Clear 50 10 42 5.6 74 74 WSW 3 6 30.21 1023 10 16 N/A

Powered by AerisWeather